Wind_Speed
15 15 16 16 17 17 17 18 18 18 17 18 18 18 18 19 19 19 18 17 17 17 18 18 18 18 18 19 19 20 20 19 18 18 18 18 18 18
16 17 17 17 19 19 19 19 19 19 19 19 19 20 20 20 20 20 19 19 19 19 19 19 19 20 20 20 20 20 20 19 19 19 20 20 19 20
18 18 19 19 19 19 19 20 20 20 20 20 20 21 21 21 21 21 21 21 21 21 21 21 21 21 21 22 22 22 22 22 21 21 21 22 22 22
19 19 19 20 19 20 20 21 21 22 21 21 21 22 22 22 23 22 22 23 23 23 22 23 23 23 23 23 23 23 23 23 23 23 23 24 24 23
19 19 20 20 20 20 20 21 22 22 22 23 23 23 23 23 24 24 24 24 24 24 24 24 24 24 24 24 24 24 24 25 25 25 25 24 25 25
20 20 21 21 21 21 21 22 22 23 23 23 23 24 24 24 25 25 25 25 25 26 26 25 25 26 26 26 26 26 26 26 26 26 26 26 26 26
22 22 23 23 23 23 23 23 23 23 24 24 24 24 24 25 26 26 26 26 26 27 27 27 27 27 28 28 28 27 27 27 27 27 27 27 27 28
23 24 24 23 24 24 24 24 24 25 25 25 25 25 25 26 27 27 27 28 27 27 27 28 28 28 29 29 29 29 29 29 29 29 28 29 29 29
24 24 24 25 26 26 25 25 26 26 26 26 26 25 25 26 27 27 27 28 28 29 29 29 30 30 29 29 30 30 30 30 30 29 29 29 29 29
25 26 26 27 27 26 26 26 26 27 27 27 27 26 26 26 27 27 28 28 28 29 29 30 30 30 30 30 30 30 30 29 29 29 29 28 29 30
26 26 26 26 26 26 27 27 27 27 27 27 27 27 27 27 28 28 29 29 29 29 30 30 30 31 30 30 30 30 30 30 30 30 30 29 29 30
27 27 26 27 26 27 27 27 27 27 27 27 27 28 28 28 29 29 29 30 30 30 30 30 30 30 30 30 30 30 30 29 30 30 30 30 30 31
28 27 27 27 27 27 27 26 26 26 26 27 28 29 30 30 30 30 31 31 31 31 31 30 30 30 30 30 30 30 30 30 30 30 31 31 32 32
27 27 28 27 27 27 27 26 26 27 27 27 28 29 30 30 31 31 31 32 32 32 32 32 32 31 31 31 30 31 31 31 31 31 32 32 32 32
28 29 29 29 29 29 28 28 28 28 28 29 29 30 31 31 31 32 33 33 33 33 33 33 33 32 32 32 32 31 31 32 32 32 32 33 33 33
29 29 30 31 30 30 30 30 30 30 30 31 31 31 32 32 32 33 33 34 34 35 35 34 34 34 33 33 33 32 32 32 32 32 32 33 33 33
31 31 32 32 32 32 31 31 31 31 32 32 33 34 34 34 34 35 35 35 35 35 35 34 33 34 33 33 33 33 33 33 33 33 32 32 32 32
32 33 34 34 33 32 32 33 33 34 34 35 34 35 35 35 36 35 35 35 36 35 35 35 34 34 34 33 33 33 33 34 33 33 33 32 32 32
34 34 34 34 34 34 34 34 34 35 36 36 36 36 36 36 36 35 36 36 36 36 35 35 35 35 34 34 33 33 33 33 33 33 33 32 33 33
34 34 34 34 34 35 35 35 36 36 37 37 37 37 37 37 37 37 37 37 37 36 35 35 35 35 35 35 34 34 34 34 34 34 34 34 34 34
34 34 34 34 35 35 36 37 37 37 37 38 38 38 39 39 39 40 39 38 38 37 36 36 36 36 37 36 36 35 35 35 35 34 34 35 35 35
34 34 34 35 35 36 36 36 37 38 38 39 39 39 40 40 41 40 40 40 39 38 37 37 37 36 36 36 36 36 35 35 35 34 34 35 35 35
34 35 36 36 36 36 36 37 37 39 39 40 40 41 41 41 41 41 40 40 40 38 37 37 37 37 37 36 36 36 35 35 35 34 34 34 35 34
Wind_Direction
295 296 295 293 293 293 294 293 294 295 296 294 292 293 293 293 294 293 294 293 293 294 290 288 287 288 287 284 281 280 281 278 276 275 274 273 273 273
293 294 293 293 294 292 290 291 292 294 295 294 292 291 291 292 292 292 292 292 292 292 290 288 288 289 286 286 285 285 283 280 277 275 273 271 271 271
292 292 291 292 293 292 289 290 291 291 291 291 292 291 289 288 290 291 290 291 291 291 290 289 288 286 286 286 285 284 283 279 277 275 273 271 270 271
292 292 292 292 293 291 288 288 289 289 289 290 291 291 292 290 289 289 290 291 291 290 289 289 288 287 287 286 285 285 283 279 278 276 273 271 272 272
292 294 294 294 295 294 290 289 289 289 290 290 290 290 290 291 292 289 290 289 288 288 287 288 289 289 287 287 285 284 283 280 277 276 274 274 273 272
292 293 294 294 294 293 292 291 291 290 289 289 290 290 289 290 290 289 289 288 287 288 288 288 288 289 288 287 286 284 282 280 278 276 273 272 272 273
292 292 293 295 294 292 291 291 291 290 290 290 289 291 290 290 290 290 289 288 288 287 287 289 289 288 288 288 287 284 282 281 279 276 273 272 272 272
291 292 293 294 294 293 292 291 290 289 290 290 289 290 290 290 291 291 290 289 288 287 288 288 288 288 287 287 286 284 282 281 280 276 273 272 271 272
293 292 293 294 294 292 291 291 290 290 289 289 289 290 291 291 291 291 290 290 290 290 289 288 288 287 287 287 286 285 282 281 280 277 275 272 271 271
294 292 292 294 295 293 292 291 289 289 288 288 288 288 290 291 292 293 292 292 292 291 289 288 287 287 287 287 286 285 284 281 279 277 275 273 272 272
295 294 294 293 292 292 291 291 290 288 287 287 288 288 288 290 292 292 293 294 293 292 290 288 287 286 285 285 285 285 283 281 279 277 274 272 271 272
296 295 295 294 293 292 289 289 291 291 288 288 288 289 289 290 290 292 293 293 293 292 291 290 288 286 285 284 285 284 283 282 280 278 275 272 271 272
294 295 296 296 295 292 291 292 293 293 292 291 291 290 290 290 291 291 291 292 292 292 291 290 290 289 288 286 285 284 284 283 282 280 277 273 272 272
295 295 296 295 294 292 291 291 292 293 293 292 292 292 291 291 291 291 291 292 291 290 289 289 289 289 289 288 287 286 285 284 283 281 278 275 275 274
293 293 294 293 293 292 293 292 292 292 291 291 291 292 292 291 291 290 289 290 289 290 289 288 288 287 287 287 286 285 285 284 283 281 278 276 276 275
293 293 293 293 292 292 292 293 292 291 291 291 291 292 291 290 290 290 290 290 289 289 289 289 289 288 286 286 286 285 284 283 282 280 278 276 275 274
291 292 292 293 292 291 292 293 294 293 292 293 291 290 290 289 289 289 289 289 288 288 288 288 287 286 286 286 287 286 284 282 281 280 279 278 277 275
290 292 292 292 291 291 291 292 292 293 294 295 294 293 292 291 290 289 289 289 288 288 288 287 286 285 285 285 286 286 285 284 281 280 278 278 277 277
290 292 292 291 291 292 292 292 292 293 294 294 294 294 293 291 291 289 288 288 288 287 288 287 286 285 284 284 285 284 284 283 281 279 279 278 278 277
290 291 291 291 291 292 292 293 293 293 294 295 294 294 293 291 289 289 288 288 286 286 286 286 285 285 284 282 283 283 282 281 281 279 278 278 278 277
293 293 292 292 292 292 293 293 294 295 295 295 295 294 293 290 289 288 287 287 285 284 284 284 284 284 283 282 281 282 282 281 280 279 278 277 277 277
293 294 294 295 294 294 295 294 294 295 296 296 295 294 293 292 290 288 286 286 284 282 282 282 282 283 283 282 282 282 280 279 279 279 277 277 277 277
295 295 296 296 295 295 295 295 296 297 296 295 294 294 294 293 292 289 286 286 285 282 281 281 281 281 281 281 281 281 280 279 278 278 278 277 277 276
Height
5878 5876 5875 5874 5873 5871 5870 5869 5868 5866 5864 5862 5860 5859 5858 5856 5854 5853 5852 5851 5849 5848 5847 5845 5844 5843 5842 5841 5840 5840 5839 5839 5838 5838 5838 5838 5838 5838
5874 5872 5871 5870 5868 5867 5865 5864 5863 5861 5859 5858 5856 5854 5853 5852 5850 5849 5847 5846 5845 5843 5842 5841 5840 5838 5837 5836 5836 5835 5834 5833 5833 5833 5832 5832 5832 5832
5869 5868 5866 5865 5864 5862 5860 5859 5858 5856 5854 5853 5851 5849 5848 5847 5845 5844 5842 5841 5840 5838 5837 5836 5834 5833 5832 5831 5830 5829 5829 5828 5827 5827 5827 5827 5826 5827
5864 5863 5861 5860 5858 5857 5855 5854 5852 5851 5849 5847 5846 5844 5842 5841 5840 5838 5837 5835 5834 5833 5831 5830 5829 5827 5826 5825 5824 5823 5823 5822 5821 5821 5820 5820 5820 5820
5859 5858 5856 5855 5853 5851 5849 5848 5846 5845 5843 5842 5840 5838 5837 5835 5833 5832 5830 5829 5828 5826 5825 5824 5822 5821 5820 5819 5818 5817 5816 5815 5815 5814 5813 5813 5813 5813
5853 5852 5851 5849 5847 5845 5843 5842 5840 5839 5837 5835 5834 5832 5831 5829 5827 5825 5824 5822 5821 5820 5818 5817 5815 5814 5813 5812 5810 5809 5808 5807 5807 5806 5806 5806 5806 5806
5847 5846 5844 5843 5841 5839 5837 5836 5834 5832 5830 5829 5827 5826 5824 5822 5820 5818 5817 5815 5814 5812 5811 5809 5808 5807 5805 5804 5803 5802 5801 5800 5799 5799 5798 5798 5798 5798
5841 5840 5838 5837 5835 5833 5831 5829 5827 5826 5824 5823 5821 5819 5817 5815 5813 5812 5810 5808 5807 5805 5803 5802 5800 5799 5797 5796 5795 5794 5793 5792 5791 5790 5790 5790 5790 5790
5836 5834 5832 5830 5828 5826 5824 5822 5820 5819 5817 5816 5814 5812 5810 5808 5806 5804 5802 5801 5799 5797 5796 5794 5793 5791 5789 5788 5787 5785 5784 5783 5782 5781 5781 5781 5781 5781
5829 5827 5825 5822 5820 5818 5816 5814 5813 5812 5810 5808 5807 5805 5803 5801 5799 5797 5795 5793 5791 5789 5787 5786 5784 5783 5781 5780 5778 5777 5775 5774 5773 5772 5772 5772 5772 5772
5823 5820 5818 5815 5813 5810 5808 5807 5805 5804 5802 5800 5799 5797 5795 5793 5791 5790 5788 5785 5783 5781 5779 5777 5776 5774 5773 5771 5769 5768 5767 5766 5764 5763 5763 5763 5763 5763
5816 5814 5811 5809 5806 5803 5800 5799 5798 5796 5795 5793 5791 5790 5788 5786 5784 5782 5780 5778 5775 5773 5771 5769 5767 5765 5764 5762 5760 5759 5757 5756 5755 5754 5754 5753 5753 5753
5809 5807 5804 5802 5799 5796 5794 5793 5791 5789 5787 5786 5784 5782 5780 5778 5776 5774 5771 5769 5767 5765 5762 5760 5758 5756 5754 5753 5751 5750 5748 5747 5746 5745 5744 5743 5743 5743
5802 5800 5798 5795 5793 5790 5788 5786 5784 5782 5780 5778 5777 5774 5772 5770 5767 5765 5763 5760 5758 5756 5753 5751 5749 5747 5745 5743 5742 5740 5739 5737 5736 5735 5734 5733 5733 5733
5795 5793 5790 5788 5786 5783 5781 5778 5776 5774 5772 5770 5768 5766 5763 5761 5758 5756 5753 5751 5749 5746 5744 5742 5740 5737 5735 5733 5732 5730 5729 5727 5726 5725 5724 5723 5723 5722
5788 5785 5783 5780 5778 5775 5773 5771 5768 5766 5764 5762 5759 5756 5754 5751 5749 5746 5744 5741 5739 5737 5735 5732 5730 5727 5725 5723 5722 5720 5718 5717 5716 5714 5714 5713 5712 5711
5779 5777 5775 5772 5770 5767 5765 5762 5760 5757 5755 5752 5749 5747 5744 5741 5739 5736 5734 5731 5729 5727 5724 5722 5720 5717 5715 5713 5712 5710 5708 5707 5705 5704 5703 5702 5701 5700
5771 5768 5766 5763 5760 5758 5756 5753 5751 5748 5745 5742 5739 5736 5733 5731 5728 5726 5723 5720 5718 5716 5713 5711 5709 5707 5705 5703 5701 5699 5697 5696 5695 5694 5692 5692 5691 5690
5762 5759 5756 5754 5751 5749 5746 5744 5741 5738 5735 5732 5729 5725 5722 5720 5717 5715 5712 5710 5707 5705 5702 5700 5698 5695 5694 5693 5691 5689 5687 5685 5684 5683 5682 5681 5680 5680
5752 5749 5747 5744 5742 5739 5736 5733 5730 5727 5724 5721 5718 5715 5712 5709 5706 5703 5701 5698 5696 5693 5691 5689 5686 5684 5682 5681 5680 5678 5676 5674 5673 5672 5671 5670 5669 5668
5743 5740 5737 5734 5732 5729 5726 5723 5720 5716 5713 5710 5707 5703 5700 5697 5694 5692 5689 5686 5683 5681 5679 5677 5675 5673 5670 5669 5668 5667 5665 5663 5662 5660 5659 5658 5658 5657
5733 5730 5728 5725 5722 5719 5715 5712 5709 5705 5702 5699 5695 5692 5688 5685 5682 5679 5676 5673 5671 5669 5666 5665 5663 5661 5659 5657 5656 5655 5653 5652 5650 5649 5648 5647 5646 5645
5723 5721 5718 5714 5711 5708 5705 5702 5698 5694 5691 5687 5683 5680 5676 5672 5669 5665 5663 5660 5657 5655 5653 5651 5650 5648 5647 5645 5644 5642 5641 5640 5638 5637 5637 5635 5634 5634